Weather History for Casper, WY

Change the Weather History Date:

Sunday, November 24, 2013

  Actual Average Record
Temperature  
Mean Temperature 20 °F 29 °F  
Max Temperature 38 °F 40 °F 61 °F (1995)
Min Temperature 2 °F 18 °F -19 °F (1993)
Degree Days  
Heating Degree Days 45 36  
Month to date heating degree days 772 733  
Since 1 July heating degree days 1661 1632  
Cooling Degree Days 0 0  
Month to date cooling degree days 0 0  
Year to date cooling degree days 618 422  
Moisture  
Dew Point 14 °F    
Average Humidity 66    
Maximum Humidity 83    
Minimum Humidity 48    
Precipitation  
Precipitation 0.00 in 0.02 in 0.50 in (1942)
Month to date precipitation 0.24 0.64  
Year to date precipitation 13.94 11.91  
Sea Level Pressure  
Sea Level Pressure 30.23 in    
Wind  
Wind Speed 13 mph (SW)    
Max Wind Speed 26 mph    
Max Gust Speed 34 mph    
Visibility 10 miles    
Events      
T = Trace of Precipitation, MM = Missing Value Source: NWS Daily Summary

Daily Weather History Graph

Daily Weather History Graph

Search for Another Location

Airport:

Trip Planner

Search our weather history database for the weather conditions in past years. The results will help you decide how hot, cold, wet, or windy it might be!

Date:

Astronomy

Nov. 24, 2013 Rise Set
Actual Time 7:09 AM MST 4:35 PM MST
Civil Twilight 6:38 AM MST 5:06 PM MST
Nautical Twilight 6:03 AM MST 5:41 PM MST
Astronomical Twilight 5:29 AM MST 6:15 PM MST
Moon 11:09 PM MST (11/24) 11:54 AM MST (11/24)
Length of Visible Light 10h 28m
Length of Day
9h 26m
Waning Gibbous, 60% of the Moon is Illuminated
Nov 24
Waning Gibbous
Nov 25
Last Quarter
Dec 2
New
Dec 9
First Quarter
Dec 17
Full

Hourly Weather History & Observations

Time (MST) Temp. Windchill Dew Point Humidity Pressure Visibility Wind Dir Wind Speed Gust Speed Precip Events Conditions
12:53 AM 5.0 °F -6.9 °F -0.0 °F 80% 30.41 in 10.0 mi West 6.9 mph - N/A   Clear
1:53 AM 3.0 °F -4.4 °F -2.0 °F 80% 30.39 in 10.0 mi South 3.5 mph - N/A   Clear
2:53 AM 10.9 °F -1.8 °F 6.1 °F 81% 30.33 in 10.0 mi WSW 9.2 mph - N/A   Clear
3:53 AM 15.1 °F 1.8 °F 9.0 °F 77% 30.31 in 10.0 mi WSW 11.5 mph - N/A   Clear
4:53 AM 19.0 °F 5.6 °F 10.0 °F 68% 30.30 in 10.0 mi SW 13.8 mph - N/A   Clear
5:53 AM 18.0 °F 3.1 °F 10.0 °F 71% 30.32 in 10.0 mi SW 16.1 mph - N/A   Clear
6:53 AM 19.0 °F 5.0 °F 10.0 °F 68% 30.30 in 10.0 mi SW 15.0 mph - N/A   Clear
7:53 AM 18.0 °F 5.4 °F 9.0 °F 68% 30.32 in 10.0 mi West 11.5 mph - N/A   Clear
8:53 AM 25.0 °F 13.1 °F 12.9 °F 60% 30.28 in 10.0 mi WSW 13.8 mph - N/A   Clear
9:53 AM 30.0 °F 17.2 °F 16.0 °F 56% 30.24 in 10.0 mi SW 20.7 mph - N/A   Clear
10:53 AM 32.0 °F 20.8 °F 17.1 °F 54% 30.21 in 10.0 mi SW 17.3 mph - N/A   Clear
11:53 AM 34.0 °F 22.7 °F 19.0 °F 54% 30.17 in 10.0 mi SW 19.6 mph - N/A   Clear
12:53 PM 36.0 °F 26.3 °F 19.0 °F 50% 30.15 in 10.0 mi SW 16.1 mph - N/A   Clear
1:53 PM 37.0 °F 26.7 °F 19.9 °F 50% 30.15 in 10.0 mi SSW 19.6 mph 25.3 mph N/A   Clear
2:53 PM 37.9 °F 28.2 °F 21.0 °F 51% 30.12 in 10.0 mi SSW 18.4 mph 24.2 mph N/A   Clear
3:53 PM 36.0 °F 27.1 °F 19.9 °F 52% 30.12 in 10.0 mi SW 13.8 mph 20.7 mph N/A   Clear
4:53 PM 28.0 °F 20.0 °F 18.0 °F 66% 30.14 in 10.0 mi WSW 8.1 mph - N/A   Clear
5:53 PM 25.0 °F 15.5 °F 18.0 °F 75% 30.17 in 10.0 mi SW 9.2 mph - N/A   Clear
6:53 PM 27.0 °F 17.3 °F 18.0 °F 69% 30.17 in 10.0 mi WSW 10.4 mph - N/A   Clear
7:53 PM 26.1 °F 16.2 °F 17.1 °F 69% 30.20 in 10.0 mi WSW 10.4 mph - N/A   Clear
8:53 PM 24.1 °F 15.2 °F 16.0 °F 71% 30.20 in 10.0 mi West 8.1 mph - N/A   Clear
9:53 PM 23.0 °F 13.1 °F 15.1 °F 72% 30.20 in 10.0 mi West 9.2 mph - N/A   Partly Cloudy
10:53 PM 25.0 °F 15.5 °F 17.1 °F 72% 30.20 in 10.0 mi West 9.2 mph - N/A   Mostly Cloudy
11:53 PM 27.0 °F 18.7 °F 19.0 °F 72% 30.19 in 10.0 mi West 8.1 mph - N/A   Overcast